Погода в Гнездычеве

Украина / Львовская область     49°20′13″N   24°06′19″E
темп.,
°C
ветер,
м/с
пор.,
м/с
влажн.,
%
обл.,
%
осадки,
мм/ч
давл.,
гПа
погр.,
м
18 мая, вт
вт1800:00+13юв2377100 0.0 100256
03:00+11ю1193100 1.3 100121
06:00+10зсз3698100 2.8 1002238
09:00+10зсз4898100 7.9 1003419
12:00+10зсз61094100 5.0 1004446
15:00+13зсз81084100 5.0 1004903
18:00+11зсз81387100 0.0 1006860
21:00+11зсз91582100 0.1 1006868
19 мая, ср
ср1900:00+11зсз9158687 0.5 1008837
03:00+11зсз81381100 0.5 1008838
06:00+10зсз81481100 0.0 1009781
09:00+11зсз8128168 0.0 1011915
12:00+14сз797139 0.1 10111243
15:00+15сз577059 0.4 10101159
18:00+15сз45712 1.0 10101032
21:00+12сз338365 1.4 101145
20 мая, чт
чт2000:00+9з1190100 0.0 101110
03:00+7сз119398 0.0 101110
06:00+8сз2294100 0.0 101147
09:00+11ссз3488100 0.0 1011375
12:00+13ссв3481100 1.1 1011675
15:00+12ссв4788100 5.6 1011482
18:00+12с4987100 2.9 1012397
21:00+11с61387100 5.3 1013571
21 мая, пт
пт2100:00+10ссз41286100 0.6 1014387
03:00+8ссз41191100 0.7 1016327
06:00+8ссз41194100 0.1 1017355
09:00+10с4984100 0.1 1018553
12:00+13с4669100 0.0 10191234
15:00+14с4558100 0.1 10191478
18:00+15ссв235980 0.1 10181369
21:00+10в228117 0.3 101917
22 мая, сб
сб2200:00+7ю22891 0.0 102022
03:00+6ююв22885 0.0 101911
06:00+6ю22904 0.0 101827
09:00+12юв45733 0.0 1017361
12:00+17юв335712 0.0 10161061
15:00+20в23485 0.0 10141331
18:00+19вюв446560 0.0 1013708
21:00+14ююв4788100 0.2 1014122